Tracking 29781 objects as of 15-Oct-2024
HD Live streaming from Space Station
objects crossing your sky now

TIGER-7

Track TIGER-7 now!
10-day predictions


NORAD ID: 59141
Int'l Code: 2024-043AV
Perigee: 482.6 km
Apogee: 495.8 km
Inclination: 97.5 °
Period: 94.2 minutes
Semi major axis: 6860 km
RCS: Unknown
Launch date: March 4, 2024
Source: Republic of Rwanda (RWA)
Launch site: AIR FORCE WESTERN TEST RANGE (AFWTR)
Your satellite tracking list
Your tracking list is empty




NASA's NSSDC Master Catalog

Two Line Element Set (TLE):
1 59141U 24043AV  24288.30397322  .00033610  00000-0  12307-2 0  9994
2 59141  97.4844  51.9822 0009620 215.7142 144.3455 15.27911654 33951
Source of the keplerian elements: AFSPC